TimeEDT,TemperatureF,Dew PointF,Humidity,Sea Level PressureIn,VisibilityMPH,Wind Direction,Wind SpeedMPH,Gust SpeedMPH,PrecipitationIn,Events,Conditions,WindDirDegrees,DateUTC
12:53 AM,68.0,64.0,87,29.96,10.0,South,3.5,-,N/A,,Clear,170,2013-05-20 04:53:00
1:53 AM,69.1,64.0,84,29.97,10.0,South,4.6,-,N/A,,Partly Cloudy,190,2013-05-20 05:53:00
2:53 AM,68.0,64.0,87,29.95,10.0,South,5.8,-,N/A,,Clear,180,2013-05-20 06:53:00
3:53 AM,66.0,63.0,90,29.97,7.0,Calm,Calm,-,N/A,,Clear,0,2013-05-20 07:53:00
4:53 AM,64.0,61.0,90,29.96,4.0,SE,4.6,-,N/A,,Clear,130,2013-05-20 08:53:00
5:46 AM,64.4,62.6,94,29.99,4.0,SE,5.8,-,N/A,,Partly Cloudy,140,2013-05-20 09:46:00
5:53 AM,64.9,63.0,93,29.97,4.0,SE,5.8,-,N/A,,Mostly Cloudy,140,2013-05-20 09:53:00
5:59 AM,64.4,62.6,94,29.99,2.5,SSE,4.6,-,N/A,,Mostly Cloudy,150,2013-05-20 09:59:00
6:18 AM,66.2,62.6,88,29.99,1.8,SSE,4.6,-,N/A,,Overcast,150,2013-05-20 10:18:00
6:24 AM,66.2,64.4,94,29.99,0.8,SE,6.9,-,0.01,,Overcast,140,2013-05-20 10:24:00
7:51 AM,66.2,64.4,94,30.01,1.2,South,4.6,-,N/A,,Overcast,170,2013-05-20 11:51:00
7:53 AM,66.9,63.0,87,30.00,1.2,South,4.6,-,N/A,,Overcast,170,2013-05-20 11:53:00
8:06 AM,68.0,64.4,88,30.02,2.0,SSE,4.6,-,N/A,,Overcast,160,2013-05-20 12:06:00
8:14 AM,68.0,66.2,94,30.01,2.5,SSE,4.6,-,N/A,,Overcast,150,2013-05-20 12:14:00
8:25 AM,69.8,66.2,88,30.01,3.0,SSE,5.8,-,N/A,,Overcast,150,2013-05-20 12:25:00
8:53 AM,70.0,66.0,87,30.00,4.0,South,6.9,-,N/A,,Overcast,180,2013-05-20 12:53:00
9:18 AM,71.6,66.2,83,30.03,5.0,South,8.1,-,N/A,,Haze,190,2013-05-20 13:18:00
9:53 AM,70.0,66.0,87,30.02,5.0,SSW,4.6,-,N/A,,Overcast,200,2013-05-20 13:53:00
10:00 AM,69.8,66.2,88,30.03,5.0,SSW,6.9,-,N/A,Thunderstorm,Overcast,210,2013-05-20 14:00:00
10:07 AM,69.8,66.2,88,30.03,5.0,SSW,4.6,-,N/A,Thunderstorm,Overcast,200,2013-05-20 14:07:00
10:38 AM,69.8,66.2,88,30.04,5.0,South,3.5,-,N/A,Thunderstorm,Overcast,170,2013-05-20 14:38:00
10:53 AM,70.0,66.0,87,30.04,5.0,South,5.8,-,N/A,,Overcast,180,2013-05-20 14:53:00
11:53 AM,73.0,68.0,84,30.03,5.0,SSW,8.1,-,N/A,,Haze,210,2013-05-20 15:53:00
12:18 PM,73.4,68.0,83,30.03,5.0,South,6.9,-,N/A,,Haze,180,2013-05-20 16:18:00
12:53 PM,75.9,69.1,79,30.00,5.0,SSE,9.2,-,N/A,,Haze,160,2013-05-20 16:53:00
1:53 PM,80.1,71.1,74,29.98,6.0,SE,9.2,-,N/A,,Haze,130,2013-05-20 17:53:00
2:02 PM,80.6,69.8,70,30.00,6.0,Variable,6.9,-,N/A,,Haze,0,2013-05-20 18:02:00
2:14 PM,80.6,68.0,65,30.00,7.0,South,6.9,-,N/A,,Mostly Cloudy,170,2013-05-20 18:14:00
2:53 PM,81.0,71.1,72,29.97,7.0,SSE,11.5,16.1,N/A,,Scattered Clouds,150,2013-05-20 18:53:00
3:53 PM,82.9,68.0,60,29.94,9.0,SSE,10.4,-,N/A,,Partly Cloudy,160,2013-05-20 19:53:00
4:53 PM,84.0,68.0,58,29.92,10.0,South,10.4,-,N/A,,Partly Cloudy,170,2013-05-20 20:53:00
5:53 PM,84.0,66.0,55,29.91,10.0,South,11.5,-,N/A,,Partly Cloudy,190,2013-05-20 21:53:00
6:53 PM,82.0,64.0,54,29.90,10.0,South,12.7,-,N/A,,Partly Cloudy,190,2013-05-20 22:53:00
7:53 PM,80.1,64.9,60,29.92,8.0,SW,5.8,-,N/A,,Clear,220,2013-05-20 23:53:00